Location: Unspecified
(51.6250°N, 0.8230°E)
Time: 03:53:21
(UTC+01:00)

Cosmos 1674 - Visible Passes

Search period start: 21 August 2017 00:00
Search period end: 31 August 2017 00:00
Orbit: 499 x 521 km, 82.5° (Epoch: 20 August)

Date Brightness Start Highest point End Pass type
(mag) Time Alt. Az. Time Alt. Az. Time Alt. Az.
21 Aug 4.4 00:30:41 10° N 00:33:31 28° NE 00:33:31 28° NE visible
21 Aug 4.6 02:06:23 10° NNW 02:08:25 22° WNW 02:08:25 22° WNW visible
22 Aug 4.6 00:14:10 10° NNE 00:16:49 24° NE 00:16:49 24° NE visible
22 Aug 4.5 01:49:34 10° NNW 01:51:42 25° NW 01:51:42 25° NW visible
22 Aug 4.8 23:57:41 10° NNE 00:00:07 20° NE 00:00:07 20° NE visible
23 Aug 4.4 01:32:48 10° NNW 01:35:01 28° NW 01:35:01 28° NW visible
23 Aug 4.9 23:41:14 10° NNE 23:43:25 17° NE 23:43:25 17° NE visible
24 Aug 4.3 01:16:04 10° NNW 01:18:19 31° NW 01:18:19 31° NW visible
24 Aug 5.1 23:24:54 10° NNE 23:26:44 14° NE 23:26:44 14° NE visible
25 Aug 4.3 00:59:21 10° NNW 01:01:38 33° NNW 01:01:38 33° NNW visible
25 Aug 5.2 23:08:41 10° NE 23:10:04 12° ENE 23:10:04 12° ENE visible
26 Aug 4.3 00:42:38 10° NNW 00:44:57 34° NNW 00:44:57 34° NNW visible
26 Aug 5.4 22:53:01 10° NE 22:53:24 10° ENE 22:53:24 10° ENE visible
27 Aug 4.3 00:25:58 10° N 00:28:17 35° N 00:28:17 35° N visible
28 Aug 4.3 00:09:18 10° N 00:11:37 34° N 00:11:37 34° N visible
28 Aug 5.6 01:46:27 10° NW 01:46:31 10° NW 01:46:31 10° NW visible
28 Aug 4.3 23:52:40 10° N 23:54:58 32° NNE 23:54:58 32° NNE visible
29 Aug 5.5 01:29:19 10° NW 01:29:51 12° NW 01:29:51 12° NW visible
29 Aug 4.4 23:36:03 10° N 23:38:19 29° NNE 23:38:19 29° NNE visible
30 Aug 5.4 01:12:18 10° NW 01:13:12 14° NW 01:13:12 14° NW visible
30 Aug 4.5 23:19:28 10° N 23:21:40 26° NNE 23:21:40 26° NNE visible
